Torna al catalogo

EGYPTSAT 2

AttivoScienzaLEO
NORAD 39678·PAYLOAD·🇪🇬 Egypt

Lanciato Apr 16, 2014 da Baikonur Cosmodrome

Loading…

Prossimi Passaggi (prossime 24 ore)

TLE

AggiornatoSource: Space-Track

Epoca: Sep 14, 2026, 09:14 UTC

1 39678U 14021A   26257.38483379  .00000032  00000-0  47952-4 0  9994
2 39678  51.6171 149.6263 0000571 122.2526 237.8477 14.56099240656218

Traccia EGYPTSAT 2 in tempo reale con AllMySat

Download on the App Store